�ϑ��N����,2019/9/26,,,
�ϑ���,����@���Ђ�,,,
�ϑ��n�_,11,,,
���x�v�ԍ�,31,,,
,,,,
����,�C��,����,����,���l
9:30:00,26.2,0,0,
9:31:00,25.9,0,0,
9:32:00,26.3,5,1,
9:33:00,26.0,0,0,
9:34:00,26.0,5,1,
9:35:00,25.8,0,0,
9:36:00,25.4,0,0,
9:37:00,25.8,0,0,
9:38:00,26.1,0,0,
9:39:00,26.0,5,1,
9:40:00,26.0,0,0,
9:41:00,26.7,5,1,
9:42:00,26.2,2,1,
9:43:00,26.1,0,0,
9:44:00,26.0,0,0,
9:45:00,25.9,1,1,
9:46:00,25.8,0,0,
9:47:00,26.2,0,0,
9:48:00,26.5,0,0,
9:49:00,26.0,0,0,
9:50:00,26.5,6,1,
9:51:00,26.2,0,0,
9:52:00,27.0,0,0,
9:53:00,27.1,0,0,
9:54:00,26.9,0,0,
9:55:00,26.9,0,0,
9:56:00,27.3,0,0,
9:57:00,27.8,0,0,
9:58:00,27.2,0,0,
9:59:00,27.4,0,0,
10:00:00,27.2,6,1,
10:01:00,27.2,5,1,
10:02:00,27.4,5,1,
10:03:00,27.0,5,1,
10:04:00,27.9,5,1,
10:05:00,27.7,7,1,
10:06:00,27.2,0,0,
10:07:00,27.6,0,0,
10:08:00,28.1,0,0,
10:09:00,28.0,-999,-999,
10:10:00,27.1,0,0,
10:11:00,27.8,0,0,
10:12:00,28.2,0,0,
10:13:00,28.0,5,1,
10:14:00,28.1,0,0,
10:15:00,28.4,3,1,
10:16:00,27.2,2,1,
10:17:00,28.0,0,0,
10:18:00,27.0,5,1,
10:19:00,27.0,2,1,
10:20:00,27.8,0,0,
10:21:00,28.2,2,1,
10:22:00,27.2,0,0,
10:23:00,27.2,0,0,
10:24:00,28.0,0,0,
10:25:00,28.5,5,1,
10:26:00,28.6,0,0,
10:27:00,28.1,5,1,
10:28:00,27.9,5,2,
10:29:00,28.0,5,2,
10:30:00,28.3,0,0,
10:31:00,28.3,0,0,
10:32:00,28.7,0,0,
10:33:00,29.0,5,1,
10:34:00,29.4,5,1,
10:35:00,29.2,5,1,
10:36:00,29.1,0,0,
10:37:00,29.3,5,1,
10:38:00,-999,-999,-999,
10:39:00,28.9,6,1,
10:40:00,29.0,6,1,
10:41:00,29.0,0,0,
10:42:00,27.5,0,0,
10:43:00,27.4,3,1,
10:44:00,28.0,5,2,
10:45:00,27.9,5,3,
10:46:00,28.0,5,1,
10:47:00,28.0,0,0,
10:48:00,28.2,0,0,
10:49:00,28.0,0,0,
10:50:00,-999,-999,-999,
10:51:00,-999,-999,-999,
10:52:00,-999,-999,-999,
10:53:00,-999,-999,-999,
10:54:00,-999,-999,-999,
10:55:00,-999,-999,-999,
10:56:00,28.6,5,2,
10:57:00,29.0,5,2,
10:58:00,28.9,5,1,
10:59:00,29.1,5,1,
11:00:00,29.0,5,1,
11:01:00,28.5,0,0,
11:02:00,28.6,5,1,
11:03:00,28.5,0,0,
11:04:00,28.0,0,0,
11:05:00,28.2,3,1,
11:06:00,28.1,5,1,
11:07:00,28.1,6,1,
11:08:00,28.7,5,1,
11:09:00,28.9,5,2,
11:10:00,28.1,6,1,
11:11:00,27.8,0,0,
11:12:00,28.0,0,0,
11:13:00,28.1,5,1,
11:14:00,28.0,0,0,
11:15:00,29.0,0,0,
11:16:00,29.2,0,2,
11:17:00,28.0,0,0,
11:18:00,28.4,0,0,
11:19:00,28.2,1,1,
11:20:00,27.9,2,1,
11:21:00,28.5,0,0,
11:22:00,28.0,0,0,
11:23:00,28.7,0,0,
11:24:00,28.7,0,0,
11:25:00,28.5,2,2,
11:26:00,28.9,0,0,
11:27:00,29.1,0,0,
11:28:00,29.4,0,0,
11:29:00,28.1,0,0,
11:30:00,28.4,0,0,
